CZ-6A DEB, 55218

Orbit data source: Space-Track

CZ-6A DEB, 55218 is space debris in SSO originally from a launch on Fri, 11 Nov 2022 UTC launched from the Taiyaun Space Center, China (TSC). Debris objects in space refer to the collection of defunct objects orbiting the Earth. Examples of debris include non-operational satellites, rocket bodies, and fragments generated from explosions, collisions, or faulty payload assembly.

Loading next visibility...
Identifier
55218, 2022-151WK
Orbit
SSO
Country
Flag of CNCN / PRC
Related business
Manufacturer
SAST
Mission
Spacecraft
Bus & Motor
Unknown
Mass
Unknown
Launch date (UTC)
2022-11-11 (4 years ago)
Launch vehicle
Unknown
Launch site
Taiyaun Space Center, China (TSC)
Object type
Payload
Rocket body
Debris
Shape & HBR
Unknown shape, 0.1 m
Radar Cross Section
Small (<0.1 m²)

Expand to show TLE details & history
Last TLE update: 3 days ago

TLE from 3 days ago
0 CZ-6A DEB
1 55218U 22151WK  26170.43591091  .00002000  00000-0  98008-3 0  9990
2 55218  98.8222 174.9351 0046639 318.7013  41.0639 14.18408884185424
Epoch: 2026-06-19T10:27Z
TLE epoch observation values (Epoch: 2026-06-19T10:27:42.702Z)
Latitude
0.00002°
Longitude
110.34225°
Altitude
808.361 km
Speed
7.462 km/s
True Right ascension
11h 39m 44s
True Declination
0° 00' 00"
Sunlit
Object was in daylight at epoch
Visualization orbit readout
Latitude
Unknown
Longitude
Unknown
Altitude
Unknown
Speed
Unknown
Apparent Right ascension
Unknown
Apparent Declination
Unknown
Sunlit
N/A
Visualization observer readout
Local Sidereal Time
00:39:36
Azimuth
Unknown
Elevation
Unknown
Doppler factor
Unknown
Orbital elements
Apogee altitude
861.513 km
Perigee altitude
794.297 km
Semi-major axis
7,206.042 km
Eccentricity
0.00466
Inclination
98.8222°
RAAN
174.9351°
Arg. of periapsis
318.7013°
True anomaly
41.41652°
Mean anomaly
41.0639°
Eccentric anomaly
41.24006°
Mean motion
3.54812 °/min
Orbital period
101.46 mins
BSTAR
0.00098008
Loading maneuver chart data...
Computing Atmospheric mass density...
Loading historical data...
Loading historical data...
Loading historical data...
Loading historical data...
Loading historical data...
Loading historical data...
Loading historical data...

Documentation

Showing up to 5 results
|